This demonstration page uses our WeatherBlox Daily Observations layout. Learn more.

Left ArrowRight Arrow

39.01783, -85.05884

Hourly Observations for March 17, 2017

Temp ( °F °C ) Dew Point ( °F °C ) Humidity (%) Winds ( mph kmh ) Pressure ( in mb ) Visibility ( mi km ) Precip ( " mm )
12:52 am 00:52 Clear 31 -0.6 11 -11.7 43 43 S 6 9 30.29 1026 10 16 0.00 0.00
1:52 am 01:52 Mostly Clear 30 -1.1 11 -11.7 45 45 S 6 9 30.28 1026 10 16 0.00 0.00
2:52 am 02:52 Mostly Cloudy 31 -0.6 14 -10 49 49 S 6 9 30.29 1026 10 16 0.00 0.00
3:52 am 03:52 Cloudy 32 0 15 -9.4 50 50 S 7 11 30.28 1025 10 16 0.00 0.00
4:52 am 04:52 Cloudy 33 0.6 17 -8.3 52 52 S 8 13 30.25 1025 10 16 0.00 0.00
5:52 am 05:52 Cloudy 34 1.1 18 -7.8 52 52 SSE 6 9 30.25 1024 10 16 0.00 0.00
6:52 am 06:52 Cloudy 35 1.7 16 -8.9 46 46 SE 7 11 30.25 1024 10 16 0.00 0.00
7:52 am 07:52 Cloudy 35 1.7 19 -7.2 52 52 SSE 8 13 30.25 1024 10 16 0.00 0.03
8:04 am 08:04 Cloudy 35 1.7 20 -6.7 54 54 S 8 13 30.30 1026 5 8 0.00 0.03
8:28 am 08:28 Cloudy with Light Rain 34 1.1 24 -4.4 67 67 SSE 7 11 30.30 1026 7 11 0.04 1.02
8:52 am 08:52 Cloudy with Light Rain 33 0.6 25 -3.9 72 72 SE 6 9 30.25 1024 8 13 0.04 1.02
9:22 am 09:22 Cloudy with Light Freezing Rain 33 0.6 26 -3.3 75 75 SSE 8 13 30.30 1026 5 8 0.01 0.25
9:49 am 09:49 Cloudy with Light Rain 34 1 28 -2 81 81 SSE 12 19 30.27 1025 6 10 0.03 0.76
9:52 am 09:52 Cloudy with Light Rain 33 0.6 28 -2.2 82 82 SSE 9 15 30.23 1024 6 10 0.03 0.76
10:23 am 10:23 Cloudy with Light Rain 33 0.6 30 -1.1 89 89 SE 10 17 30.27 1025 5 8 0.01 0.25
10:39 am 10:39 Cloudy with Light Rain 33 0.6 30 -1.1 89 89 SSE 14 22 30.27 1025 3 5 0.01 0.25
10:44 am 10:44 Cloudy with Light Rain 34 1 30 -1 87 87 SSE 12 19 30.24 1024 2 3 0.00 0.00
10:52 am 10:52 Cloudy with Light Rain 33 0.6 31 -0.6 92 92 SE 14 22 30.20 1023 2 3 0.02 0.51
11:06 am 11:06 Cloudy with Light Rain 34 1 32 0 93 93 SE 10 17 30.24 1024 3 5 0.00 0.00
11:17 am 11:17 Cloudy with Mist and Fog 33 0.6 32 0 96 96 SE 12 19 30.24 1024 6 10 0.01 0.25
11:52 am 11:52 Cloudy with Light Rain 35 1.7 34 1.1 96 96 SSE 14 22 30.17 1022 5 8 0.01 0.25
12:34 pm 12:34 Cloudy 36 2 34 1 93 93 SSE 13 20 30.18 1022 10 16 0.00 0.00
12:52 pm 12:52 Cloudy 36 2.2 33 0.6 89 89 SSE 10 17 30.14 1021 8 13 0.01 0.25
1:52 pm 13:52 Cloudy 38 3.3 34 1.1 86 86 S 8 13 30.12 1020 10 16 0.00 0.00
2:52 pm 14:52 Cloudy 40 4.4 35 1.7 83 83 SSE 10 17 30.08 1019 10 16 0.00 0.00
3:23 pm 15:23 Cloudy 41 5 36 2.2 82 82 SE 8 13 30.09 1019 9 14 0.00 0.00
3:52 pm 15:52 Cloudy 40 4.4 36 2.2 86 86 SSE 12 19 30.06 1018 8 13 0.00 0.00
4:01 pm 16:01 Cloudy with Drizzle 40 4.4 37 2.8 89 89 SSE 9 15 30.06 1018 2 3 0.00 0.03
4:05 pm 16:05 Cloudy with Drizzle 40 4.4 37 2.8 89 89 SSE 9 15 30.06 1018 1 2 0.00 0.03
4:45 pm 16:45 Cloudy with Light Rain 39 3.9 38 3.3 96 96 SSE 9 15 30.06 1018 1 2 0.00 0.03
4:52 pm 16:52 Cloudy with Nearby Thunderstorms 39 3.9 39 3.9 100 100 SE 8 13 30.04 1017 1 2 0.00 0.03
5:08 pm 17:08 Cloudy with Mist and Fog 39 4 39 4 100 100 SE 8 13 30.06 1018 1 2 0.00 0.00
5:35 pm 17:35 Cloudy with Drizzle 40 4.4 39 3.9 97 97 SE 5 7 30.06 1018 1 1 0.01 0.25
5:52 pm 17:52 Cloudy with Drizzle 40 4.4 39 3.9 97 97 SE 5 7 30.04 1017 1 1 0.01 0.25
6:52 pm 18:52 Cloudy with Drizzle 40 4.4 40 4.4 100 100 SE 7 11 30.03 1017 1 1 0.00 0.03
7:52 pm 19:52 Cloudy with Mist and Fog 41 5 40 4.4 96 96 S 3 6 30.04 1017 1 1 0.00 0.03
8:52 pm 20:52 Mostly Cloudy with Fog 41 5 41 5 100 100 Calm 30.05 1018 1 1 0.00 0.00
9:30 pm 21:30 Mostly Cloudy with Drizzle 43 6.1 42 5.6 97 97 Calm 30.06 1018 1 2 0.00 0.03
9:52 pm 21:52 Mostly Cloudy with Drizzle 44 6.7 43 6.1 96 96 WSW 3 6 30.06 1018 1 2 0.00 0.03
10:52 pm 22:52 Mostly Cloudy with Drizzle 45 7.2 45 7.2 100 100 SW 5 7 30.06 1018 1 2 0.00 0.03
11:52 pm 23:52 Cloudy with Mist and Fog 46 7.8 46 7.8 100 100 WSW 5 7 30.06 1018 1 2 0.00 0.03

Powered by AerisWeather